Wetbulb
70.69 71.14 71.16 71.25 71.25 71.81 71.70 71.43 71.74 71.74 71.89 72.18 72.97 71.89 71.64 71.52 71.64 71.45 72.35 75.24 76.33 76.13 76.70 76.52 76.01 75.76 75.68 75.86 75.38 74.53 74.44 73.98 73.81 73.68 73.50 73.60 73.33 73.38 73.11 72.40 71.43 71.58 71.39
69.56 69.42 69.47 70.05 70.32 70.68 70.71 71.09 70.73 70.75 70.62 71.36 71.71 72.07 70.86 71.82 71.97 71.21 71.22 71.36 75.88 75.70 76.53 76.78 76.28 75.82 75.49 75.51 75.61 75.05 74.79 74.39 74.42 74.11 74.02 73.64 73.74 73.57 73.16 73.11 72.33 71.93 71.82
68.86 68.88 68.77 69.15 69.62 69.76 69.80 70.25 70.23 70.12 69.92 70.23 70.59 71.70 71.33 71.66 71.81 71.76 71.53 71.31 72.55 75.59 76.43 76.56 76.79 76.28 76.35 75.49 75.36 75.56 75.31 75.11 75.06 74.79 74.39 73.96 73.54 73.83 73.09 73.69 72.87 72.57 72.45
68.45 67.93 68.02 68.95 69.35 69.29 69.08 68.72 68.93 68.93 68.74 68.88 69.65 70.37 71.19 71.08 71.65 71.74 71.90 71.75 71.82 71.74 74.06 75.93 76.22 76.39 76.34 75.88 75.52 75.54 75.74 75.14 75.04 74.59 74.63 74.29 73.92 73.51 73.21 73.99 73.87 72.74 72.57
69.53 69.13 68.95 68.77 69.08 68.47 68.34 68.43 67.86 68.14 67.82 68.14 68.45 69.35 69.81 69.51 70.52 72.16 71.64 71.45 71.43 71.66 71.70 74.36 75.43 75.89 76.03 75.95 75.96 76.35 76.09 75.56 75.10 74.79 74.69 74.44 74.39 73.73 73.26 73.08 73.40 73.41 72.80
70.20 69.22 69.22 69.11 68.59 67.64 67.66 67.98 67.28 67.91 67.12 67.48 69.35 69.64 69.49 69.65 70.42 70.96 71.08 71.76 71.62 71.66 71.59 71.55 72.58 74.00 75.76 76.46 75.99 76.03 76.34 76.37 75.74 74.76 74.19 73.42 73.44 73.16 73.30 72.92 72.82 72.92 72.94
69.87 69.06 68.45 68.13 67.66 67.59 67.89 67.55 66.51 65.90 66.46 67.23 65.08 65.30 66.35 68.18 69.15 69.99 70.73 71.43 71.35 71.85 71.40 71.61 71.99 73.47 74.09 75.46 74.96 75.29 76.01 76.59 74.64 74.24 74.61 73.32 72.87 72.70 72.74 73.17 72.91 72.61 72.71
69.55 69.40 68.09 67.82 67.93 67.30 66.28 67.10 66.67 65.22 65.14 66.78 63.94 62.67 61.32 63.73 66.34 68.36 69.58 70.14 70.52 71.06 71.17 71.86 71.67 71.76 71.61 72.29 73.35 74.79 75.04 74.61 74.76 73.81 74.14 73.68 73.08 72.76 72.05 72.80 72.39 71.96 72.00
68.07 68.25 68.20 67.23 67.05 67.44 66.67 66.74 66.99 65.37 64.61 65.74 65.49 62.71 59.41 58.64 61.82 66.11 67.89 69.35 69.24 69.60 70.73 71.22 71.17 71.30 71.55 71.71 72.76 72.97 73.73 73.25 73.94 74.51 73.68 74.16 73.24 72.31 72.43 72.14 71.96 71.33 71.55
67.06 67.57 67.01 66.99 66.40 67.01 66.98 67.30 67.78 66.24 64.71 63.96 65.40 66.21 64.22 62.84 59.49 59.32 63.48 67.41 68.93 68.86 68.79 69.51 70.68 71.17 70.86 71.13 72.45 72.71 72.59 71.97 72.77 73.17 73.76 74.46 73.50 72.48 72.12 71.90 72.10 71.79 71.32
65.56 66.90 66.90 66.58 66.33 66.39 66.76 66.98 66.78 65.81 65.83 64.69 64.97 64.15 64.03 64.28 63.02 60.82 58.09 61.32 65.77 68.13 68.90 69.15 69.74 70.17 70.57 70.42 70.33 71.16 72.44 71.71 71.69 72.58 73.32 73.49 73.64 73.07 72.87 72.67 72.92 73.09 72.49
64.32 65.39 66.88 66.45 66.49 66.85 66.46 66.49 66.92 66.56 65.99 64.89 64.84 63.88 63.95 63.23 62.36 61.51 60.27 60.68 61.45 64.46 68.17 68.77 69.24 69.51 69.88 70.26 71.56 72.09 72.12 71.96 71.36 71.36 71.69 72.23 72.33 72.65 73.30 71.76 71.51 71.86 72.08
64.00 64.22 65.57 65.74 65.85 66.78 66.87 66.87 66.08 65.83 65.65 65.00 64.66 63.88 64.35 64.27 64.48 63.52 62.17 61.00 60.73 63.62 66.14 67.71 68.72 68.93 69.43 69.72 70.62 72.76 72.92 71.54 70.39 69.10 69.44 70.14 70.79 71.47 71.89 71.97 72.03 72.01 72.00
63.72 64.90 65.61 65.86 66.24 66.85 67.01 66.85 66.69 66.28 65.65 65.47 64.17 64.19 64.55 65.21 65.52 65.21 63.78 62.02 59.83 60.50 62.73 63.58 65.74 67.64 68.16 68.83 69.80 71.56 70.83 69.91 69.42 67.95 67.50 67.84 68.32 69.19 70.23 70.61 70.88 70.93 71.37
66.01 65.45 65.67 65.31 65.68 66.47 66.58 66.15 67.05 68.09 66.91 64.77 64.46 64.44 64.80 65.74 66.33 66.60 65.63 64.89 62.44 59.39 59.93 62.86 63.19 66.49 67.18 68.43 69.27 69.60 68.54 68.90 69.49 67.91 66.57 66.14 66.76 66.71 67.32 67.93 68.02 67.17 67.50
64.93 65.32 65.31 65.55 65.50 65.88 65.99 66.32 66.67 66.65 66.15 65.51 64.65 65.00 65.36 65.37 65.76 66.12 66.08 65.60 65.20 63.29 60.34 62.50 63.77 65.90 68.05 69.47 69.51 68.38 68.54 67.87 67.46 67.30 66.75 65.35 65.06 65.22 65.96 66.51 66.29 65.95 66.04
64.88 65.31 64.64 64.36 64.38 64.34 64.72 64.36 64.07 65.56 65.83 65.19 64.66 65.06 64.65 65.24 64.90 65.37 65.83 64.84 64.66 64.36 61.55 63.19 65.11 65.85 66.37 66.19 65.56 64.84 64.74 64.14 64.07 65.19 65.33 64.83 63.88 64.06 64.08 64.25 64.14 63.91 63.76
64.79 65.61 65.27 63.84 64.07 64.34 64.61 64.90 66.15 66.38 65.65 64.84 65.19 63.67 64.36 66.18 65.11 65.35 64.85 64.56 64.16 64.66 63.31 61.29 63.75 63.99 65.03 65.17 64.36 63.13 62.93 63.12 62.28 63.19 62.89 62.52 61.92 61.27 60.66 60.35 59.94 59.40 59.16
63.73 63.49 63.42 63.43 62.59 62.02 61.66 61.62 62.26 62.22 62.15 62.76 63.72 65.00 64.43 64.77 63.81 62.75 62.70 62.66 62.68 63.95 63.88 62.82 61.70 62.70 63.67 62.51 59.38 58.00 58.86 59.88 60.36 62.15 61.48 60.74 59.88 59.03 57.78 56.81 56.11 54.68 53.78
62.31 62.01 62.19 62.31 62.45 62.76 62.34 61.81 61.25 60.39 59.80 59.70 60.18 60.59 61.04 61.57 60.41 60.32 61.19 61.37 61.89 62.88 62.84 61.96 61.30 61.48 61.57 60.77 59.70 56.67 54.68 57.50 56.93 58.58 59.42 58.61 58.00 57.53 56.63 56.05 55.23 54.01 52.13
60.20 59.64 59.92 60.46 61.28 61.57 61.73 60.90 60.92 59.79 58.67 57.99 58.70 59.90 60.80 61.85 61.57 61.42 60.62 60.42 61.15 60.26 61.01 60.89 60.37 60.51 60.59 60.13 58.66 58.55 55.18 55.51 55.02 57.48 55.99 55.19 54.11 53.60 53.69 55.53 55.94 55.08 53.35
55.87 56.05 56.33 58.62 59.70 60.40 58.53 59.28 58.11 56.21 55.95 56.03 55.54 56.23 56.59 57.03 57.91 58.75 59.01 58.64 58.67 59.84 59.54 59.30 59.74 58.82 56.93 56.91 57.07 58.76 55.00 54.07 52.45 53.70 54.70 54.10 55.75 55.23 55.38 54.57 55.87 55.01 53.27
52.44 51.75 53.35 55.59 56.47 57.83 57.01 57.53 58.69 56.73 57.04 57.23 56.53 56.75 57.09 56.19 53.62 52.02 52.07 52.24 52.45 54.06 56.20 59.08 56.01 52.97 53.05 54.12 55.81 55.22 55.10 54.48 53.12 52.74 53.58 51.26 52.69 53.35 53.37 52.99 55.70 54.22 52.83
50.17 48.92 49.10 50.54 54.60 55.57 53.67 53.22 53.76 50.64 49.02 49.45 50.75 54.07 54.72 51.56 50.16 50.05 49.91 49.27 49.15 50.53 50.68 51.18 50.90 50.83 50.99 51.63 52.93 53.86 54.31 51.61 51.32 50.21 50.48 47.94 48.96 48.31 51.78 52.73 55.97 54.91 53.37
47.25 46.94 49.28 51.06 52.49 51.07 50.58 50.67 49.53 47.20 46.43 46.21 48.06 50.47 48.34 48.05 52.45 52.14 49.95 48.94 49.20 48.77 51.68 52.06 52.10 51.92 52.02 52.04 51.40 47.96 45.93 46.23 45.71 46.68 48.68 47.26 47.46 47.21 47.32 47.04 49.15 53.10 53.84
47.01 47.67 48.05 49.57 51.01 49.82 48.53 48.68 49.48 48.29 45.60 46.16 46.09 46.81 50.87 48.31 48.92 49.12 49.11 49.00 48.17 48.75 49.06 48.79 48.26 48.59 49.07 49.43 51.33 48.57 48.63 46.47 46.23 45.96 48.71 47.76 47.65 47.58 45.95 49.58 47.42 46.35 48.43
MSLP
1015.51 1015.51 1015.60 1015.67 1015.86 1016.12 1016.20 1016.30 1016.40 1016.51 1016.71 1016.98 1017.14 1017.31 1017.56 1017.74 1017.81 1017.96 1017.93 1017.85 1018.25 1018.74 1018.98 1019.29 1019.57 1019.80 1020.08 1020.32 1020.67 1020.94 1021.22 1021.46 1021.68 1021.86 1022.05 1022.20 1022.44 1022.60 1022.83 1023.11 1023.35 1023.55 1023.73
1015.26 1015.53 1015.61 1015.68 1015.81 1015.90 1016.05 1016.19 1016.22 1016.32 1016.68 1016.76 1016.92 1016.81 1017.24 1017.36 1017.39 1017.71 1017.84 1017.97 1018.15 1018.30 1018.68 1018.97 1019.31 1019.59 1019.81 1020.04 1020.34 1020.60 1020.90 1021.15 1021.39 1021.63 1021.85 1022.05 1022.22 1022.44 1022.70 1022.96 1023.19 1023.33 1023.54
1014.83 1015.22 1015.59 1015.76 1015.65 1015.79 1016.00 1016.21 1016.17 1016.18 1016.49 1016.57 1016.89 1016.65 1016.70 1016.97 1017.03 1017.39 1017.65 1017.95 1018.00 1018.18 1018.53 1018.77 1019.00 1019.34 1019.58 1019.72 1020.00 1020.29 1020.58 1020.86 1021.03 1021.24 1021.48 1021.80 1022.03 1022.20 1022.46 1022.73 1022.97 1023.18 1023.34
1014.49 1014.82 1015.31 1015.48 1015.44 1015.63 1015.88 1016.20 1016.37 1016.32 1016.44 1016.67 1016.72 1016.59 1016.74 1016.60 1016.65 1016.96 1017.38 1017.67 1017.71 1018.05 1018.25 1018.48 1018.79 1019.00 1019.31 1019.51 1019.69 1019.93 1020.14 1020.45 1020.58 1020.71 1021.02 1021.31 1021.65 1021.93 1022.25 1022.45 1022.66 1022.96 1023.18
1014.07 1014.36 1014.82 1015.06 1015.16 1015.40 1015.76 1016.08 1016.34 1016.38 1016.48 1016.50 1016.56 1016.63 1016.58 1016.50 1016.57 1016.67 1017.17 1017.49 1017.70 1017.77 1018.03 1018.08 1018.27 1018.59 1018.99 1019.17 1019.32 1019.42 1019.77 1019.88 1020.20 1020.29 1020.43 1020.77 1021.20 1021.55 1021.80 1022.10 1022.35 1022.59 1022.77
1013.65 1013.89 1014.28 1014.65 1014.91 1015.30 1015.51 1015.88 1016.19 1016.33 1016.23 1016.28 1016.50 1016.52 1016.71 1016.46 1016.58 1016.73 1016.87 1016.97 1017.41 1017.40 1017.70 1017.83 1018.06 1018.20 1018.48 1018.57 1018.74 1019.10 1019.17 1019.25 1019.54 1019.74 1019.93 1020.38 1020.74 1021.09 1021.38 1021.64 1021.99 1022.17 1022.38
1013.34 1013.56 1013.90 1014.37 1014.51 1014.91 1015.11 1015.61 1016.06 1016.29 1016.22 1016.32 1016.69 1016.84 1016.81 1016.58 1016.68 1016.77 1016.66 1016.86 1017.07 1017.09 1017.36 1017.53 1017.71 1017.92 1018.03 1018.09 1018.43 1018.57 1018.71 1018.88 1019.28 1019.38 1019.59 1019.84 1020.24 1020.55 1020.80 1021.14 1021.45 1021.68 1021.94
1012.98 1013.04 1013.39 1013.81 1014.21 1014.59 1014.98 1015.32 1015.74 1016.12 1016.15 1016.16 1016.72 1017.11 1017.32 1017.16 1016.84 1016.61 1016.63 1016.70 1016.78 1016.77 1016.98 1017.06 1017.24 1017.39 1017.52 1017.65 1017.71 1018.03 1018.28 1018.45 1018.78 1018.97 1019.22 1019.53 1019.82 1020.12 1020.33 1020.53 1020.77 1021.04 1021.31
1012.61 1012.73 1012.80 1013.25 1013.76 1014.09 1014.54 1014.92 1015.29 1015.78 1015.97 1016.09 1016.18 1016.64 1017.10 1017.20 1017.10 1016.76 1016.62 1016.71 1016.78 1016.80 1016.54 1016.60 1016.73 1016.88 1017.03 1017.19 1017.33 1017.57 1017.80 1017.99 1018.19 1018.43 1018.81 1019.06 1019.31 1019.60 1019.77 1020.02 1020.22 1020.39 1020.72
1012.22 1012.29 1012.45 1012.80 1013.32 1013.70 1014.02 1014.34 1014.78 1015.35 1015.69 1015.97 1016.33 1016.42 1016.36 1016.46 1016.85 1017.10 1016.73 1016.65 1016.54 1016.51 1016.32 1016.29 1016.35 1016.45 1016.59 1016.79 1016.94 1017.01 1017.20 1017.56 1017.85 1018.12 1018.35 1018.58 1018.78 1018.94 1019.16 1019.47 1019.71 1019.80 1020.06
1012.07 1012.00 1012.24 1012.68 1013.05 1013.41 1013.65 1014.06 1014.58 1015.00 1015.27 1015.40 1015.67 1016.08 1016.42 1016.45 1016.54 1016.77 1017.12 1016.93 1016.73 1016.46 1016.06 1015.89 1015.88 1016.04 1016.15 1016.41 1016.62 1016.69 1016.85 1017.16 1017.41 1017.63 1017.75 1018.01 1018.22 1018.47 1018.75 1018.98 1019.20 1019.33 1019.63
1011.86 1011.87 1012.02 1012.41 1012.69 1013.00 1013.31 1013.72 1014.16 1014.58 1014.81 1015.05 1015.20 1015.46 1015.69 1016.13 1016.43 1016.63 1016.86 1016.88 1016.73 1016.25 1016.07 1015.47 1015.37 1015.49 1015.69 1015.97 1016.22 1016.39 1016.57 1016.72 1016.85 1017.04 1017.23 1017.38 1017.73 1017.99 1018.24 1018.52 1018.68 1019.01 1019.14
1011.91 1011.85 1012.04 1012.32 1012.54 1012.66 1012.92 1013.39 1013.89 1014.29 1014.52 1014.82 1014.94 1015.00 1015.23 1015.45 1015.57 1015.92 1016.38 1016.64 1016.70 1016.23 1015.71 1015.03 1014.61 1014.94 1015.36 1015.67 1015.84 1015.95 1015.98 1016.03 1016.22 1016.39 1016.65 1016.89 1017.24 1017.43 1017.80 1018.05 1018.13 1018.38 1018.72
1011.82 1011.89 1012.11 1012.18 1012.29 1012.48 1012.77 1013.15 1013.54 1013.91 1014.21 1014.39 1014.63 1014.90 1015.09 1015.24 1015.41 1015.61 1015.95 1016.33 1016.57 1016.29 1015.79 1015.33 1014.30 1014.87 1015.09 1015.33 1015.56 1015.69 1015.83 1016.03 1015.95 1016.29 1016.54 1016.64 1016.95 1017.02 1017.34 1017.65 1017.83 1018.07 1018.36
1012.01 1011.81 1011.88 1012.07 1012.25 1012.38 1012.62 1012.95 1013.32 1013.60 1013.92 1014.10 1014.33 1014.61 1014.88 1015.11 1015.28 1015.52 1015.67 1015.86 1016.07 1016.38 1016.00 1015.25 1015.15 1015.00 1015.09 1015.34 1015.37 1015.66 1015.78 1015.85 1015.73 1015.90 1016.40 1016.88 1016.83 1016.96 1017.10 1017.23 1017.48 1017.88 1018.03
1012.20 1012.01 1011.93 1012.09 1012.30 1012.43 1012.61 1012.91 1013.23 1013.42 1013.66 1013.86 1014.11 1014.36 1014.61 1014.93 1015.18 1015.36 1015.57 1015.80 1015.89 1016.01 1015.96 1015.47 1015.57 1015.56 1015.34 1015.39 1015.53 1015.60 1015.81 1016.10 1015.96 1015.85 1016.24 1016.59 1017.04 1016.75 1016.93 1017.10 1017.52 1017.84 1018.12
1012.67 1012.50 1012.39 1012.31 1012.43 1012.57 1012.73 1012.92 1013.07 1013.28 1013.52 1013.72 1013.86 1014.15 1014.62 1014.91 1015.31 1015.35 1015.36 1015.63 1015.82 1015.81 1015.92 1015.82 1016.01 1016.08 1015.94 1016.18 1016.15 1016.09 1016.32 1016.52 1016.44 1016.29 1016.50 1016.57 1016.72 1016.78 1017.03 1017.24 1017.74 1018.15 1018.56
1013.21 1013.00 1012.92 1012.83 1012.74 1012.74 1012.80 1013.06 1013.09 1013.24 1013.45 1013.72 1014.06 1014.44 1014.84 1014.96 1015.05 1015.09 1015.40 1015.75 1015.85 1015.77 1016.02 1016.26 1016.41 1016.52 1016.27 1016.62 1016.62 1016.69 1016.72 1016.74 1016.94 1016.66 1016.74 1016.69 1016.99 1017.14 1017.43 1017.79 1018.21 1018.65 1019.11
1013.89 1013.71 1013.50 1013.42 1013.47 1013.39 1013.39 1013.62 1013.74 1013.85 1014.05 1014.31 1014.46 1014.59 1014.76 1014.92 1015.25 1015.53 1015.72 1015.91 1016.04 1016.00 1015.96 1016.31 1016.71 1016.74 1016.82 1017.07 1017.22 1017.10 1017.43 1017.38 1017.62 1017.55 1017.53 1017.46 1017.78 1017.98 1018.19 1018.49 1018.89 1019.31 1019.74
1014.65 1014.67 1014.40 1014.27 1014.26 1014.20 1014.15 1014.25 1014.38 1014.73 1014.90 1015.14 1015.27 1015.22 1015.36 1015.53 1015.76 1015.96 1016.08 1016.19 1016.25 1016.28 1016.43 1016.58 1016.80 1017.02 1017.13 1017.42 1017.57 1017.96 1018.08 1018.22 1018.52 1018.37 1018.64 1018.43 1018.75 1018.70 1018.86 1019.24 1019.52 1019.78 1020.20
1015.49 1015.35 1015.25 1015.05 1014.92 1014.92 1015.03 1015.01 1015.12 1015.40 1015.70 1016.06 1016.08 1016.12 1016.30 1016.48 1016.62 1016.60 1016.63 1016.68 1016.58 1016.75 1016.89 1017.04 1017.20 1017.46 1017.48 1017.73 1017.75 1018.22 1018.51 1018.75 1019.07 1019.14 1019.57 1019.64 1019.77 1019.77 1020.05 1020.08 1020.20 1020.25 1020.56
1016.17 1016.02 1016.04 1015.87 1015.77 1015.85 1015.86 1015.90 1016.03 1016.36 1016.77 1017.00 1017.06 1017.13 1017.17 1017.28 1017.32 1017.28 1017.31 1017.40 1017.29 1017.25 1017.25 1017.45 1017.56 1017.80 1018.04 1018.12 1018.11 1018.23 1018.60 1019.16 1019.63 1019.77 1019.94 1020.30 1020.23 1020.50 1020.65 1020.63 1020.60 1020.71 1020.79
1016.58 1016.82 1016.82 1016.66 1016.61 1016.57 1016.47 1016.56 1016.81 1017.10 1017.41 1017.69 1017.81 1017.90 1017.95 1018.16 1018.18 1018.07 1018.09 1018.06 1017.99 1017.97 1017.97 1017.62 1018.14 1018.68 1018.75 1018.87 1018.71 1018.63 1018.46 1019.14 1019.89 1020.29 1020.19 1020.63 1020.78 1020.89 1020.92 1021.00 1020.91 1020.86 1021.07
1017.22 1017.48 1017.54 1017.46 1017.33 1017.41 1017.22 1017.29 1017.49 1017.93 1018.40 1018.59 1018.51 1018.46 1018.59 1018.66 1018.74 1018.58 1018.58 1018.75 1018.90 1018.85 1018.80 1018.81 1019.08 1019.41 1019.47 1019.38 1019.19 1019.11 1019.23 1019.77 1020.44 1020.52 1020.65 1021.00 1021.08 1021.25 1021.32 1021.09 1021.02 1021.12 1021.43
1018.06 1018.16 1018.06 1017.91 1017.92 1018.19 1018.17 1018.13 1018.28 1018.69 1019.06 1019.41 1019.38 1019.31 1019.37 1019.35 1019.41 1019.43 1019.34 1019.61 1019.78 1019.94 1019.81 1019.71 1019.73 1019.84 1019.90 1019.74 1019.34 1019.31 1019.94 1020.31 1020.88 1021.24 1021.16 1021.16 1021.54 1021.56 1021.68 1021.76 1021.36 1021.31 1021.50
1018.56 1018.65 1018.76 1018.79 1018.76 1018.76 1018.84 1018.73 1018.89 1019.30 1019.67 1020.06 1020.21 1020.29 1020.31 1020.24 1020.19 1020.20 1020.05 1020.29 1020.54 1020.76 1020.58 1020.40 1020.49 1020.39 1020.32 1020.35 1020.21 1020.19 1020.52 1020.68 1021.02 1021.35 1021.66 1021.75 1022.03 1022.22 1022.11 1022.11 1022.10 1022.08 1021.90
Wind_Speed
4 4 4 3 3 3 3 4 4 4 4 4 5 5 6 5 5 3 3 18 16 15 17 18 18 17 17 16 15 15 15 15 14 14 13 13 13 13 13 13 12 12 11
3 3 3 4 3 3 3 4 4 4 4 3 5 5 5 6 7 5 3 4 12 14 15 17 18 18 18 17 16 16 16 15 14 14 13 13 14 13 13 13 14 14 13
6 6 4 4 4 3 4 3 3 2 2 3 5 4 4 6 7 8 6 4 5 14 15 17 17 17 17 17 17 16 15 14 14 15 13 13 14 13 13 13 14 15 14
7 5 4 5 4 4 3 3 3 3 3 3 3 4 4 4 6 8 6 4 5 5 9 15 17 17 17 18 18 17 15 15 15 13 13 13 14 14 14 14 13 13 15
7 6 5 5 5 4 4 3 3 2 3 3 3 4 4 4 5 5 5 6 8 6 4 13 19 17 19 20 19 18 17 16 15 15 15 15 14 15 15 15 15 14 14
8 7 5 5 5 3 4 3 4 3 2 3 3 3 4 4 3 4 5 5 8 8 6 6 7 10 19 19 19 18 18 18 17 17 15 14 14 14 15 16 16 16 14
8 9 6 5 5 6 7 5 3 5 4 3 2 1 2 2 4 4 3 6 6 8 7 7 6 6 7 19 18 18 18 18 15 14 14 14 14 15 16 16 16 17 16
6 7 8 7 7 4 5 5 5 2 2 4 3 1 1 3 2 3 3 4 7 5 6 7 8 8 7 5 12 17 18 16 18 17 14 13 14 14 15 16 17 18 18
6 6 7 7 7 6 6 6 6 6 4 3 4 4 2 4 1 1 4 4 5 4 5 6 7 7 7 5 10 13 17 17 17 17 16 14 13 15 15 15 16 18 16
5 5 5 6 6 5 6 7 6 4 3 4 1 3 0 3 3 0 2 3 4 6 7 4 5 6 6 6 11 13 13 12 15 15 16 15 14 14 14 14 13 15 16
5 5 6 6 6 5 5 6 6 5 4 3 3 3 2 1 2 2 2 2 2 4 5 6 5 5 5 5 4 6 12 13 15 16 14 16 15 13 12 12 9 11 13
3 4 5 5 5 5 6 6 6 7 6 4 3 4 4 4 3 3 2 3 3 4 4 5 5 5 4 4 7 12 14 15 14 14 12 15 15 13 13 10 9 12 13
1 2 5 5 4 5 5 5 5 5 6 6 6 4 3 3 3 3 3 2 2 3 3 2 3 4 4 4 6 12 16 15 13 11 12 10 11 11 13 14 15 15 13
1 1 2 4 5 5 5 5 4 4 5 5 7 5 3 3 3 2 3 4 1 2 2 4 3 2 3 3 5 8 4 3 4 3 6 10 9 10 11 13 12 11 12
3 3 3 2 3 4 5 5 4 6 5 4 5 6 3 3 3 3 3 2 3 0 2 3 3 1 1 2 2 3 1 2 9 8 4 6 6 7 7 7 6 6 8
5 4 4 3 0 3 4 5 5 4 6 4 3 5 4 3 4 4 3 2 1 2 1 1 1 3 2 3 5 4 4 5 9 7 6 5 8 4 5 6 10 11 11
6 5 4 5 4 1 3 4 4 4 4 4 4 5 4 4 3 3 2 1 0 1 2 2 2 4 4 4 4 6 6 4 4 10 3 2 3 8 11 13 14 14 14
5 5 5 6 6 6 6 4 4 4 6 6 6 6 5 4 3 3 3 2 1 1 2 1 3 3 5 3 3 5 5 5 5 10 10 13 12 14 16 16 16 15 14
6 6 6 7 7 7 8 8 7 8 8 6 4 5 5 5 4 4 4 5 3 2 2 2 2 2 3 3 4 5 4 6 5 12 13 14 13 14 16 16 15 15 14
6 7 7 8 8 8 9 9 10 10 9 8 7 7 6 5 7 5 4 5 4 4 4 3 3 3 3 3 3 3 3 4 4 7 9 10 10 16 16 15 15 15 12
6 6 7 7 7 7 5 7 8 8 8 8 8 9 9 10 9 6 3 2 4 3 3 2 2 1 1 1 2 1 2 2 4 3 3 4 4 4 5 8 11 13 11
6 6 6 7 7 6 10 12 9 7 7 6 7 7 7 9 11 14 14 14 11 2 3 2 2 1 1 1 1 1 3 2 2 3 2 2 3 2 1 1 7 7 9
6 7 6 6 6 5 10 12 12 6 7 5 5 4 5 5 7 6 12 15 17 17 14 2 3 4 3 4 3 2 3 3 2 4 2 2 2 1 2 2 7 6 7
6 5 5 5 4 6 11 13 15 9 8 8 7 5 6 6 6 7 10 12 12 13 11 9 9 6 5 4 3 2 3 5 4 4 3 2 2 1 2 1 4 4 4
5 5 4 6 8 7 10 12 11 8 9 9 8 7 6 6 9 8 9 9 8 7 11 14 14 13 13 12 8 3 4 3 3 2 5 2 2 1 2 3 5 6 3
5 5 7 8 9 7 9 11 9 5 9 7 8 9 16 9 13 11 8 6 8 5 4 5 5 9 9 9 13 8 3 3 2 2 3 3 3 3 2 3 4 6 4
Wind_Direction
184 187 199 179 185 188 184 200 205 190 205 202 217 183 179 189 176 178 199 205 202 199 195 195 196 199 203 197 199 200 202 203 205 204 206 202 195 203 197 192 188 187 186
188 186 200 198 196 198 191 207 196 190 203 197 233 207 188 187 184 181 196 219 215 200 197 199 201 204 206 203 205 206 207 210 209 213 211 209 201 204 205 200 199 196 198
191 187 195 201 212 204 205 213 208 187 184 206 236 232 209 193 174 187 187 193 220 208 206 205 201 207 212 208 208 207 210 212 217 211 215 214 210 206 209 209 208 207 200
184 189 195 204 203 202 194 198 199 208 188 210 227 218 209 179 185 195 179 171 194 207 225 213 211 209 213 216 214 214 213 214 219 220 212 212 211 207 211 210 217 210 206
194 183 193 206 193 190 201 198 211 190 191 216 210 223 209 179 198 182 180 197 211 209 208 228 215 215 214 221 221 216 218 215 218 220 213 208 212 211 212 213 215 218 212
203 194 194 202 183 187 200 190 186 202 199 198 212 226 196 189 216 207 206 201 220 216 203 209 214 223 218 223 226 226 224 218 216 221 223 216 216 216 216 216 217 218 215
214 199 201 210 185 189 198 190 184 202 214 175 125 271 285 226 218 215 189 197 207 208 202 207 209 213 221 222 227 224 226 227 221 235 224 216 214 220 219 218 218 218 217
216 193 192 195 186 180 189 182 172 179 211 179 143 139 162 342 297 222 203 210 210 204 206 208 207 213 215 224 224 224 225 233 231 229 229 216 214 220 225 222 222 223 222
223 203 198 194 190 183 190 190 181 184 182 195 202 163 120 214 163 295 218 207 217 211 218 204 206 216 211 213 225 225 231 234 237 239 236 223 220 222 226 227 230 231 222
232 213 200 183 184 187 186 192 186 185 144 187 145 214 244 149 160 343 325 243 225 218 220 219 215 217 215 215 214 210 223 231 239 245 239 232 224 226 231 238 242 232 227
238 209 195 189 183 181 192 177 178 180 187 168 182 146 188 78 73 126 200 272 310 252 235 209 199 207 196 192 205 225 226 230 244 241 230 233 231 239 236 240 237 242 229
254 204 187 184 187 184 182 183 188 194 190 204 191 161 164 164 189 164 188 219 216 259 252 200 188 195 186 189 216 224 233 245 236 229 224 230 233 227 216 202 226 247 236
0 220 179 179 180 190 185 168 171 193 187 198 194 186 175 186 156 145 130 195 227 263 259 233 173 177 188 194 216 229 240 245 232 228 219 217 227 213 206 218 219 232 237
79 91 181 181 194 187 178 178 172 187 187 206 188 193 199 188 164 143 157 153 230 287 296 283 41 227 207 189 213 234 269 336 292 256 254 237 229 217 217 230 233 236 229
348 85 131 168 192 200 184 173 186 207 194 194 196 186 182 184 155 140 128 150 160 94 294 346 4 325 235 198 228 233 165 89 117 84 26 273 244 238 230 213 219 237 242
18 40 63 67 267 208 188 177 200 199 212 193 174 177 165 148 151 146 137 149 124 167 246 44 307 3 325 92 60 68 104 73 66 106 160 220 256 222 163 128 105 98 100
25 42 63 75 51 349 195 177 186 170 172 166 148 145 123 139 160 168 101 76 114 142 211 333 10 6 28 44 47 61 51 49 50 53 87 172 152 116 109 105 106 104 104
31 39 36 51 62 65 74 98 116 121 137 125 116 114 128 148 143 111 98 76 44 135 181 20 38 11 57 10 32 44 34 43 32 56 72 86 98 107 104 103 102 100 95
36 33 52 59 62 68 73 64 71 73 67 66 81 142 149 130 113 107 107 99 67 57 83 120 96 46 69 75 54 50 46 50 42 62 67 86 96 100 98 98 100 99 96
41 32 39 53 51 60 76 85 81 73 66 56 54 62 60 97 114 104 104 116 103 85 82 83 75 66 74 48 71 78 56 49 45 48 66 83 99 102 103 106 112 113 114
44 38 40 45 50 53 48 64 73 78 77 64 51 57 58 66 68 75 99 76 112 95 89 87 95 81 70 128 104 137 91 89 43 74 48 46 55 64 95 108 123 126 121
55 55 46 49 49 58 74 79 79 77 71 74 72 59 51 56 59 63 67 57 44 27 148 169 175 171 103 50 36 154 126 120 126 29 96 71 46 60 80 121 149 138 126
78 62 46 43 51 51 77 83 85 81 84 82 86 85 80 67 60 57 62 61 52 49 45 360 75 33 40 10 11 20 76 83 84 10 24 86 27 157 224 227 185 162 146
71 71 61 54 59 46 74 75 74 67 56 41 34 56 70 68 58 78 76 67 56 53 51 66 73 63 52 18 39 1 50 85 80 40 11 83 35 7 288 276 265 239 170
79 62 55 62 81 68 63 75 78 73 68 51 36 48 69 74 68 60 77 74 70 63 60 70 76 68 60 54 39 78 56 74 59 39 10 90 34 96 45 18 0 346 224
78 66 60 49 61 82 67 81 92 92 81 71 53 47 59 70 63 52 69 72 70 37 44 55 30 39 44 39 46 59 39 76 61 81 350 68 23 7 24 33 11 13 10